World > North America > United States > New York

Hourly Seifert Corners, NY Regional Weather

Feedback E-mail the Weather

Quick WX

Seifert Corners, NY Weather Maps

°F °C°F °C
Seifert Corners Weather Map
UTC Time: 7/4/2022, 10:07
Your Time:

Seifert Corners, NY Regional Weather

Expires:202207041000;;658083
ASUS41 KBGM 040910
RWRBGM

REGIONAL WEATHER ROUNDUP
NATIONAL WEATHER SERVICE BINGHAMTON NY
500 AM EDT MON JUL 04 2022

Note: "fair" indicates few or no clouds below 12,000 feet with no
significant weather and/or obstructions to visibility.

* = Station(s) that does not report precipitation, such as rain, 
snow, etc, also no thunder or fog.


NYZ009-015>018-022>025-036-037-044>046-055>057-062-041000
...Central New York...
  
CITY           SKY/WX    TMP DP  RH WIND       PRES   REMARKS
Binghamton     CLEAR     55  47  74 W5        30.18S                  
Cortland       FAIR      46  45  93 CALM      30.19S                  
Dansville      CLEAR     54  48  80 SE6       30.19S                  
Elmira         CLEAR     47  46  97 CALM      30.18S                  
Endicott       SUNNY     50  50 100 CALM      30.19S                  
Ithaca         CLEAR     51  49  92 E6        30.19R                  
Monticello     CLEAR     50  47  89 CALM      30.18F                  
Norwich        CLEAR     45  45 100 CALM      30.22S                  
Oneonta        CLEAR     48  46  93 CALM      30.19S                  
Penn Yan       CLEAR     56  50  80 SW6       30.18S                  
Rome           CLEAR     50  48  93 SE3       30.17S                  
Sidney         MOCLDY    46  46 100 CALM      30.20R                  
Skaneateles    FAIR      50  50 100 CALM      30.18R                  
Syracuse       PTCLDY    56  49  77 CALM      30.16S                  
$$
 

SKY/WX - Weather  TMP - Temperature  DP - Dew Point  RH - Humidity
WIND - Wind Direction/Speed PRES - Barometric Pressure VSB - Visibility
WCI - Wind Chill Index E13G22 Wind - East Wind 13 mph/Gusts of 22 mph

Trending Headlines

Seifert Corners Radar Loop



Seifert Corners Quick Facts


National Two Day Weather Forecast


E-mail the Seifert Corners Weather Forecast

Voice your opinion or tell us about page issues...